Find Starlink 31929

NORAD ID: 59836 Int'l Des: 2024-097 Owner: SPXS Country: US Constellation: starlink operational
LEOCIRCULAR

Current View

Loading 3D Globe...

About Starlink 31929

Starlink 31929 (NORAD 59836) is a starlink constellation satellite (v2 mini) launched May 23, 2024 by SPXS of US. It operates in LEO, CIRCULAR orbit with a mass of 730.00 kg.

Upcoming Passes

Passes for default location (London). Set your location on the main map for personalized predictions.

Altitude History

Loading altitude history...

Two-Line Element Set

1 59836U 24097B 26262.69368986 .00000321 00000-0 21200-4 0 9991
2 59836 43.0014 259.0345 0001045 275.6938 84.3794 15.27574423131586
Epoch: Sep 19, 2026 • Age: 23 hours

Current Status

Altitude 483.2 km
Apogee / Perigee N/A
Velocity 7.63 km/s
Sub-Earth Point -1.83°S, 155.12°W
Launch Date May 23, 2024
Age 2.3 years
Type internet

Technical Details

Classification Payload
Mass 730.00 kg
Dry Mass 700.00 kg
Length 0.30 m
Span 29.00 m
Shape ? Box + pan
Manufacturer SPXS
Bus Type Starlink V2M
Phase Status In Orbit
Owner/State SPXS/US

Most Searched